N9EX Weather Reports


time (UTC)temp
F
wind
direction
speed
knots
gust
knots
rain 1hr
in
rain 24hr
in
rain mn
in
humidity
%
barometer
mb
20260506222053 60 221 2.6 7.0 0.00 0.00 0.00 71 1021.4
20260506221559 60 0 2.6 7.8 0.00 0.00 0.00 72 1021.4
20260506221053 60 154 2.6 9.6 0.00 0.00 0.00 72 1021.5
20260506220552 60 283 2.6 9.6 0.00 0.00 0.00 77 1021.5
20260506220056 60 229 3.5 9.6 0.00 0.00 0.00 71 1021.6
20260506215557 60 220 3.5 8.7 0.00 0.00 0.00 72 1021.6
20260506215053 61 207 3.5 8.7 0.00 0.00 0.00 70 1021.5
20260506214555 62 213 1.7 8.7 0.00 0.00 0.00 69 1021.4
20260506214053 61 0 2.6 8.7 0.00 0.00 0.00 72 1021.5
20260506213552 60 240 3.5 7.8 0.00 0.00 0.00 77 1021.4
20260506213056 61 223 4.3 7.8 0.00 0.00 0.00 70 1021.4
20260506212555 61 242 2.6 9.6 0.00 0.00 0.00 70 1021.4
20260506212056 61 96 3.5 9.6 0.00 0.00 0.00 71 1021.4
20260506211557 61 182 1.7 9.6 0.00 0.00 0.00 73 1021.4
20260506211057 61 290 3.5 7.8 0.00 0.00 0.00 71 1021.6
20260506210556 61 254 1.7 7.8 0.00 0.00 0.00 71 1021.4
20260506210058 61 277 2.6 10.4 0.00 0.00 0.00 71 1021.4
20260506205558 60 175 2.6 10.4 0.00 0.00 0.00 71 1021.3
20260506205055 61 229 2.6 7.8 0.00 0.00 0.00 71 1021.4
20260506204557 61 214 1.7 4.3 0.00 0.00 0.00 72 1021.4
20260506204057 61 126 0.9 7.8 0.00 0.00 0.00 75 1021.3
20260506203556 59 154 2.6 7.8 0.00 0.00 0.00 75 1021.4
20260506203055 60 216 0.9 5.2 0.00 0.00 0.00 75 1021.3
20260506202556 59 254 0.0 6.1 0.00 0.00 0.00 76 1021.3
20260506202056 59 209 0.9 6.1 0.00 0.00 0.00 76 1021.4
20260506201620 59 209 1.7 6.1 0.00 0.00 0.00 75 1021.4
20260506201055 59 76 1.7 5.2 0.00 0.00 0.00 77 1021.5
20260506200556 59 229 0.9 7.0 0.00 0.00 0.00 76 1021.4
20260506200057 58 234 0.9 7.0 0.00 0.00 0.00 78 1021.5
20260506195556 58 178 0.9 5.2 0.00 0.00 0.00 77 1021.5
20260506195057 58 0 1.7 6.1 0.00 0.00 0.00 79 1021.3
20260506194557 58 227 1.7 7.8 0.00 0.00 0.00 78 1021.3
20260506194058 58 219 2.6 7.8 0.00 0.00 0.00 79 1021.2
20260506193556 58 205 1.7 5.2 0.00 0.00 0.00 79 1021.2
20260506193056 58 110 0.9 6.1 0.00 0.00 0.00 79 1021.2
20260506192556 58 183 2.6 6.1 0.00 0.00 0.00 78 1021.3
20260506192056 58 159 0.9 5.2 0.00 0.00 0.00 79 1021.1
20260506191559 58 0 0.9 5.2 0.00 0.00 0.00 80 1021.1
20260506191056 58 186 0.0 4.3 0.00 0.00 0.00 80 1021.1
20260506190559 58 222 0.9 4.3 0.00 0.00 0.00 80 1021.1
20260506190056 58 230 0.9 6.1 0.00 0.00 0.00 80 1021.0
20260506185556 58 227 1.7 6.1 0.00 0.00 0.00 80 1020.9
20260506185056 58 0 0.9 4.3 0.00 0.00 0.00 80 1021.1
20260506184601 58 223 0.9 5.2 0.00 0.00 0.00 80 1021.0
20260506184058 58 207 0.9 5.2 0.00 0.00 0.00 80 1021.0
20260506183557 58 217 0.9 5.2 0.00 0.00 0.00 81 1021.0
20260506183100 57 198 0.0 3.5 0.00 0.00 0.00 82 1021.0
20260506182556 57 202 0.9 5.2 0.00 0.00 0.00 82 1020.9
20260506182056 57 0 1.7 5.2 0.00 0.00 0.00 83 1020.8
20260506181555 57 182 0.9 6.1 0.00 0.00 0.00 83 1020.9
20260506181052 57 168 2.6 6.1 0.00 0.00 0.00 82 1021.0
20260506180556 57 237 0.9 5.2 0.00 0.00 0.00 82 1021.0
20260506180058 57 201 2.6 5.2 0.00 0.00 0.00 83 1020.9
20260506175553 57 211 0.9 3.5 0.00 0.00 0.00 83 1021.0
20260506175054 57 200 0.0 3.5 0.00 0.00 0.00 82 1020.9
20260506174555 57 0 0.9 3.5 0.00 0.00 0.00 83 1020.8
20260506174052 57 0 0.0 3.5 0.00 0.00 0.00 83 1020.6
20260506173554 57 0 0.0 3.5 0.00 0.00 0.00 83 1020.6
20260506173113 57 0 0.0 3.5 0.00 0.00 0.00 83 1020.6
20260506172551 57 0 0.0 3.5 0.00 0.00 0.00 83 1020.7
20260506172052 57 0 0.9 3.5 0.00 0.00 0.00 84 1020.7
20260506171557 57 0 0.9 2.6 0.00 0.00 0.00 83 1020.9
20260506171052 57 0 0.0 3.5 0.00 0.00 0.00 84 1020.9
20260506170553 57 0 0.0 3.5 0.00 0.00 0.00 84 1020.9
20260506170054 56 169 0.0 3.5 0.00 0.00 0.00 83 1020.6
20260506165553 56 0 0.0 3.5 0.00 0.00 0.00 84 1020.7
20260506165052 56 80 0.9 3.5 0.00 0.00 0.00 84 1020.7
20260506164555 56 202 1.7 3.5 0.00 0.00 0.00 84 1020.8
20260506164052 56 260 0.0 1.7 0.00 0.00 0.00 84 1020.9
20260506163552 56 0 0.0 1.7 0.00 0.00 0.00 85 1020.9
20260506163113 56 260 0.0 2.6 0.00 0.00 0.00 85 1020.7
20260506162552 56 84 0.0 2.6 0.00 0.00 0.00 85 1020.8
20260506162052 56 84 0.0 2.6 0.00 0.00 0.00 85 1020.5
20260506161600 56 0 0.0 3.5 0.00 0.00 0.00 86 1020.6
20260506161052 55 0 0.0 4.3 0.00 0.00 0.00 86 1020.5
20260506160552 55 66 0.9 4.3 0.00 0.00 0.00 86 1020.6
20260506160053 55 211 0.0 1.7 0.00 0.00 0.00 87 1020.6
20260506155552 55 0 0.9 1.7 0.00 0.00 0.00 87 1020.4
20260506155053 55 95 0.0 4.3 0.00 0.00 0.00 87 1020.4
20260506154602 55 93 0.9 4.3 0.00 0.00 0.00 88 1020.4
20260506154053 55 86 0.9 1.7 0.00 0.00 0.00 87 1020.2
20260506153553 55 173 0.9 1.7 0.00 0.00 0.00 88 1020.2
20260506153056 55 0 0.0 1.7 0.00 0.00 0.00 88 1020.3
20260506152553 55 0 0.0 3.5 0.00 0.00 0.00 88 1020.4
20260506152057 55 0 0.0 3.5 0.00 0.00 0.00 88 1020.4
20260506151634 55 76 0.0 1.7 0.00 0.00 0.00 88 1020.5
20260506151055 55 0 0.0 3.5 0.00 0.00 0.00 88 1020.7
20260506150558 54 0 0.0 3.5 0.00 0.00 0.00 88 1020.6
20260506150054 54 223 0.0 3.5 0.00 0.00 0.00 88 1020.5
20260506145558 54 179 0.9 3.5 0.00 0.00 0.00 88 1020.5
20260506145056 55 0 0.0 0.0 0.00 0.00 0.00 89 1020.3
20260506144554 54 0 0.0 0.0 0.00 0.00 0.00 89 1020.2
20260506144055 54 0 0.0 0.0 0.00 0.00 0.00 89 1020.1
20260506143556 54 0 0.0 0.0 0.00 0.00 0.00 89 1020.4
20260506143056 54 0 0.0 0.0 0.00 0.00 0.00 89 1020.4
20260506142556 54 0 0.0 0.0 0.00 0.00 0.00 90 1020.3
20260506142055 54 0 0.0 0.0 0.00 0.00 0.00 90 1020.2
20260506141558 54 0 0.0 0.0 0.00 0.00 0.00 90 1020.2
20260506141057 54 0 0.0 0.0 0.00 0.00 0.00 90 1020.1
20260506140559 54 0 0.0 0.0 0.00 0.00 0.00 90 1020.1
20260506135555 54 0 0.0 0.0 0.00 0.00 0.00 90 1020.0
20260506135056 54 0 0.0 0.0 0.00 0.00 0.00 90 1020.0
20260506134557 54 0 0.0 0.0 0.00 0.00 0.00 90 1020.2
20260506134056 54 0 0.0 0.0 0.00 0.00 0.00 90 1020.2
20260506133556 54 0 0.0 0.0 0.00 0.00 0.00 90 1020.1
20260506133103 54 0 0.0 0.0 0.00 0.00 0.00 90 1020.1
20260506132556 53 0 0.0 0.0 0.00 0.00 0.00 90 1019.9
20260506132056 53 0 0.0 0.0 0.00 0.00 0.00 91 1019.9
20260506131600 53 0 0.0 0.0 0.00 0.00 0.00 90 1019.9
20260506131056 53 0 0.0 0.0 0.00 0.00 0.00 90 1019.9
20260506130556 53 0 0.0 0.0 0.00 0.00 0.00 90 1019.7
20260506130056 53 0 0.0 0.0 0.00 0.00 0.00 90 1019.7
20260506125556 53 0 0.0 0.0 0.00 0.00 0.00 90 1019.5
20260506125056 53 0 0.0 0.0 0.00 0.00 0.00 90 1019.6
20260506124558 53 0 0.0 0.0 0.00 0.00 0.00 90 1019.5
20260506124058 53 0 0.0 0.0 0.00 0.00 0.00 91 1019.6
20260506123557 53 0 0.0 0.0 0.00 0.00 0.00 91 1019.5
20260506123059 53 0 0.0 0.0 0.00 0.00 0.00 91 1019.5
20260506122557 53 0 0.0 0.0 0.00 0.00 0.00 91 1019.5
20260506122057 53 0 0.0 0.0 0.00 0.00 0.00 91 1019.5
20260506121607 53 0 0.0 0.0 0.00 0.00 0.00 91 1019.6
20260506121056 53 0 0.0 0.0 0.00 0.00 0.00 91 1019.5
20260506120556 53 0 0.0 0.0 0.00 0.00 0.00 91 1019.5
20260506120109 53 0 0.0 0.0 0.00 0.00 0.00 90 1019.5
20260506115556 53 0 0.0 0.0 0.00 0.00 0.00 90 1019.4
20260506115056 53 0 0.0 0.0 0.00 0.00 0.00 90 1019.4
20260506114612 53 0 0.0 0.0 0.00 0.00 0.00 91 1019.4
20260506114055 53 0 0.0 0.0 0.00 0.00 0.00 91 1019.4
20260506113555 52 0 0.0 0.0 0.00 0.00 0.00 91 1019.2
20260506113058 52 0 0.0 0.0 0.00 0.00 0.00 91 1019.4
20260506112559 52 0 0.0 0.0 0.00 0.00 0.00 91 1019.3
20260506112056 52 0 0.0 0.0 0.00 0.00 0.00 91 1019.2
20260506111556 52 0 0.0 0.0 0.00 0.00 0.00 91 1019.1
20260506111056 52 0 0.0 0.0 0.00 0.00 0.00 90 1019.0
20260506110556 51 0 0.0 0.0 0.00 0.00 0.00 90 1018.9
20260506110054 51 0 0.0 0.0 0.00 0.00 0.00 91 1018.8
20260506105558 51 0 0.0 0.0 0.00 0.00 0.00 91 1018.8
20260506105055 51 0 0.0 0.0 0.00 0.00 0.00 91 1018.8
20260506104557 51 0 0.0 0.0 0.00 0.00 0.00 90 1018.7
20260506104056 51 0 0.0 0.0 0.00 0.00 0.00 90 1018.7
20260506103555 51 0 0.0 0.0 0.00 0.00 0.00 90 1018.7
20260506103056 50 0 0.0 0.0 0.00 0.00 0.00 90 1018.6
20260506102556 50 0 0.0 0.0 0.00 0.00 0.00 90 1018.6
20260506102056 50 0 0.0 0.0 0.00 0.00 0.00 90 1018.6
20260506101555 50 0 0.0 0.0 0.00 0.00 0.00 90 1018.6
20260506101055 50 0 0.0 0.0 0.00 0.00 0.00 90 1018.4
20260506100556 50 0 0.0 0.0 0.00 0.00 0.00 90 1018.4
20260506100053 50 0 0.0 0.0 0.00 0.00 0.00 90 1018.4
20260506095556 50 0 0.0 0.0 0.00 0.00 0.00 90 1018.4
20260506095056 50 0 0.0 0.0 0.00 0.00 0.00 90 1018.3
20260506094600 49 0 0.0 0.0 0.00 0.00 0.00 90 1018.3
20260506094055 49 0 0.0 0.0 0.00 0.00 0.00 90 1018.3
20260506093555 49 0 0.0 0.0 0.00 0.00 0.00 90 1018.2
20260506093113 49 0 0.0 0.0 0.00 0.00 0.00 90 1018.2
20260506092555 49 0 0.0 0.0 0.00 0.00 0.00 90 1018.3
20260506092056 49 0 0.0 0.0 0.00 0.00 0.00 90 1018.2
20260506091603 49 0 0.0 0.0 0.00 0.00 0.00 89 1018.2
20260506091054 49 0 0.0 0.0 0.00 0.00 0.00 90 1018.3
20260506090557 50 0 0.0 0.0 0.00 0.00 0.00 90 1018.2
20260506090106 50 0 0.0 0.0 0.00 0.00 0.00 90 1018.1
20260506085555 50 0 0.0 0.0 0.00 0.00 0.00 89 1018.2
20260506085056 50 0 0.0 0.0 0.00 0.00 0.00 89 1018.1
20260506084556 50 0 0.0 0.0 0.00 0.00 0.00 90 1018.0
20260506084056 50 0 0.0 0.0 0.00 0.00 0.00 89 1017.9
20260506083556 50 0 0.0 0.0 0.00 0.00 0.00 89 1017.9
20260506083053 50 0 0.0 0.0 0.00 0.00 0.00 89 1017.9
20260506082559 50 0 0.0 0.0 0.00 0.00 0.00 89 1017.9
20260506082055 51 0 0.0 0.0 0.00 0.00 0.00 89 1017.8
20260506081555 51 0 0.0 0.0 0.00 0.00 0.00 89 1017.8
20260506081055 51 0 0.0 0.0 0.00 0.00 0.00 89 1017.7
20260506080558 51 0 0.0 0.0 0.00 0.00 0.00 89 1017.7
20260506080104 51 0 0.0 0.0 0.00 0.00 0.00 89 1017.7
20260506073111 51 0 0.0 0.0 0.00 0.00 0.00 89 1017.6
20260506072559 51 0 0.0 0.0 0.00 0.00 0.00 89 1017.6
20260506072058 52 0 0.0 0.0 0.00 0.00 0.00 89 1017.5
20260506071554 52 0 0.0 0.0 0.00 0.00 0.00 89 1017.5
20260506071055 52 0 0.0 0.0 0.00 0.00 0.00 89 1017.5
20260506070555 52 0 0.0 0.0 0.00 0.00 0.00 89 1017.5
20260506062055 53 0 0.0 0.0 0.00 0.00 0.00 88 1017.3
20260506061602 53 0 0.0 0.0 0.00 0.00 0.00 88 1017.4
20260506061055 53 0 0.0 0.0 0.00 0.00 0.00 88 1017.2
20260506060555 53 0 0.0 0.0 0.00 0.00 0.00 88 1017.2
20260506051055 55 0 0.0 0.0 0.00 0.00 0.00 86 1016.7
20260506050555 55 0 0.0 0.0 0.00 0.00 0.00 86 1016.6
20260506045053 56 0 0.0 0.0 0.00 0.00 0.00 85 1016.7
20260506044605 56 0 0.0 0.0 0.00 0.00 0.00 85 1016.6
20260506044055 56 0 0.0 0.0 0.00 0.00 0.00 84 1016.6
20260506043558 57 0 0.0 0.0 0.00 0.00 0.00 84 1016.5
20260506043056 57 0 0.0 0.0 0.00 0.00 0.00 83 1016.4
20260506042556 57 0 0.0 0.0 0.00 0.00 0.00 83 1016.4
20260506042057 58 0 0.0 0.0 0.00 0.00 0.00 82 1016.3
20260506041607 58 0 0.0 0.0 0.00 0.00 0.00 81 1016.2
20260506041058 58 0 0.0 0.0 0.00 0.00 0.00 81 1016.2
20260506040555 58 0 0.0 0.0 0.00 0.00 0.00 80 1016.3
20260506035556 59 0 0.0 0.0 0.00 0.00 0.00 79 1016.3
20260506035058 60 0 0.0 0.0 0.00 0.00 0.00 78 1016.3
20260506034602 60 0 0.0 0.0 0.00 0.00 0.00 77 1016.2
20260506034054 60 0 0.0 0.0 0.00 0.00 0.00 76 1016.2
20260506033555 61 0 0.0 0.0 0.00 0.00 0.00 76 1016.1
20260506033056 61 0 0.0 0.0 0.00 0.00 0.00 75 1016.0
20260506032553 62 0 0.0 0.0 0.00 0.00 0.00 73 1016.0
20260506032054 63 0 0.0 0.0 0.00 0.00 0.00 72 1015.9
20260506031559 63 0 0.0 0.0 0.00 0.00 0.00 70 1015.9
20260506031055 64 0 0.0 0.0 0.00 0.00 0.00 69 1015.9
20260506030556 64 0 0.0 0.0 0.00 0.00 0.00 68 1015.8
20260506030057 64 0 0.0 0.0 0.00 0.00 0.00 68 1015.8
20260506025554 65 0 0.0 0.0 0.00 0.00 0.00 67 1015.7
20260506025057 65 0 0.0 0.0 0.00 0.00 0.00 67 1015.8
20260506024608 65 0 0.0 0.0 0.00 0.00 0.00 66 1015.8
20260506024053 66 0 0.0 0.0 0.00 0.00 0.00 66 1015.7
20260506023555 66 0 0.0 0.0 0.00 0.00 0.00 65 1015.7
20260506023056 66 0 0.0 3.5 0.00 0.00 0.00 65 1015.8
20260506022553 66 0 0.0 3.5 0.00 0.00 0.00 66 1015.7
20260506022055 66 0 0.0 3.5 0.00 0.00 0.00 64 1015.6
20260506021553 66 0 0.0 0.9 0.00 0.00 0.00 64 1015.7
20260506021055 67 0 0.0 0.9 0.00 0.00 0.00 64 1015.7
20260506020552 67 0 0.0 1.7 0.00 0.00 0.00 63 1015.7
20260506020119 66 0 0.0 3.5 0.00 0.00 0.00 64 1015.7
20260506015556 67 0 1.7 3.5 0.00 0.00 0.00 64 1015.6
20260506015056 67 78 0.0 2.6 0.00 0.00 0.00 64 1015.6
20260506014553 66 0 0.0 1.7 0.00 0.00 0.00 64 1015.7
20260506014058 66 5 0.0 2.6 0.00 0.00 0.00 65 1015.7
20260506013555 66 0 0.0 2.6 0.00 0.00 0.00 71 1015.7
20260506013055 66 0 0.9 2.6 0.00 0.00 0.00 65 1015.7
20260506012555 66 0 0.9 3.5 0.00 0.00 0.00 64 1015.7
20260506012059 66 0 0.0 3.5 0.00 0.00 0.00 65 1015.8
20260506011600 66 0 0.0 3.5 0.00 0.00 0.00 64 1015.8
20260506011056 66 0 0.0 3.5 0.00 0.00 0.00 64 1015.8
20260506010556 67 261 0.9 2.6 0.00 0.00 0.00 63 1015.9
20260506010053 66 221 0.0 3.5 0.00 0.00 0.00 70 1015.9
20260506005553 66 0 0.9 3.5 0.00 0.00 0.00 65 1016.0
20260506005054 67 160 0.0 3.5 0.00 0.00 0.00 63 1016.0
20260506004556 66 0 0.0 3.5 0.00 0.00 0.00 64 1016.0
20260506004055 66 0 0.9 4.3 0.00 0.00 0.00 65 1015.9
20260506003553 66 0 0.0 4.3 0.00 0.00 0.00 64 1016.0
20260506003055 66 105 0.9 4.3 0.00 0.00 0.00 64 1016.1
20260506002553 66 88 1.7 4.3 0.00 0.00 0.00 65 1016.1
20260506002056 66 96 0.9 4.3 0.00 0.00 0.00 65 1016.0
20260506001606 66 200 1.7 7.8 0.00 0.00 0.00 65 1016.1
20260506001056 65 63 2.6 7.8 0.00 0.00 0.00 66 1016.1
20260506000555 65 63 3.5 7.8 0.00 0.00 0.00 66 1016.1
20260506000122 65 104 1.7 3.5 0.00 0.00 0.00 65 1016.2
20260505235555 65 93 0.9 6.1 0.00 0.00 0.00 67 1016.2
20260505235055 65 269 2.6 6.1 0.00 0.00 0.00 66 1016.3
20260505234607 65 218 1.7 4.3 0.00 0.00 0.00 66 1016.4
20260505234056 64 198 0.9 4.3 0.00 0.00 0.00 68 1016.5
20260505233555 64 0 0.9 4.3 0.00 0.00 0.00 68 1016.4
20260505233056 64 213 1.7 4.3 0.00 0.00 0.00 68 1016.4
20260505232553 64 192 0.0 4.3 0.00 0.00 0.00 69 1016.6
20260505232055 63 187 1.7 4.3 0.00 0.00 0.00 68 1016.6
20260505231557 63 187 0.9 3.5 0.00 0.00 0.00 69 1016.6
20260505231053 63 179 0.9 3.5 0.00 0.00 0.00 70 1016.7
20260505230552 63 0 0.9 3.5 0.00 0.00 0.00 69 1016.7
20260505230059 63 0 0.9 4.3 0.00 0.00 0.00 69 1016.8
20260505225558 63 0 0.9 4.3 0.00 0.00 0.00 69 1016.9
20260505225055 63 192 0.0 4.3 0.00 0.00 0.00 69 1016.9
20260505224558 63 0 0.9 4.3 0.00 0.00 0.00 68 1016.8
20260505224059 63 0 0.9 2.6 0.00 0.00 0.00 71 1017.0
20260505223556 63 254 0.9 2.6 0.00 0.00 0.00 70 1017.0
20260505223104 63 132 0.0 4.3 0.00 0.00 0.00 71 1017.0
20260505222556 63 0 0.0 5.2 0.00 0.00 0.00 70 1017.0